This is the latest recevied weather packets stored in our database for station/object W8BS. If no packets are shown the sender has not sent any weather packets the latest 10 day(s).
| Time | Temp. | Humidity | Pressure | Rain* | Wind** | Luminosity | Snow |
|---|---|---|---|---|---|---|---|
| 1778061921 | 12.22° C | 99% | 1007.9 hPa | 3.05 mm | - | 0 W/m² | - |
| 1778061619 | 12.22° C | 99% | 1007.9 hPa | 4.32 mm | - | 0 W/m² | - |
| 1778061317 | 12.22° C | 99% | 1008.3 hPa | 3.05 mm | - | 0 W/m² | - |
| 1778061013 | 12.22° C | 99% | 1007.9 hPa | 4.83 mm | - | 0 W/m² | - |
| 1778060711 | 12.22° C | 98% | 1008.3 hPa | 8.89 mm | - | 0 W/m² | - |
| 1778060409 | 12.78° C | 97% | 1008.5 hPa | 8.89 mm | - | 0 W/m² | - |
| 1778060107 | 12.78° C | 96% | 1008.3 hPa | 7.87 mm | - | 0 W/m² | - |
| 1778059804 | 12.78° C | 95% | 1008.5 hPa | 4.32 mm | - | 0 W/m² | - |
| 1778059502 | 13.33° C | 93% | 1008.6 hPa | 3.05 mm | - | 0 W/m² | - |
| 1778059198 | 13.33° C | 92% | 1008.2 hPa | 3.56 mm | - | 0 W/m² | - |
| 1778058897 | 13.33° C | 90% | 1008.1 hPa | 1.78 mm | - | 0 W/m² | - |
| 1778058593 | 13.89° C | 90% | 1008.2 hPa | 0 mm | - | 0 W/m² | - |
| 1778058291 | 13.89° C | 89% | 1008.1 hPa | 0 mm | - | 0 W/m² | - |
| 1778057987 | 13.89° C | 85% | 1008.1 hPa | 0 mm | - | 0 W/m² | - |
| 1778057684 | 14.44° C | 84% | 1007.8 hPa | 0 mm | - | 0 W/m² | - |
| 1778057381 | 15° C | 81% | 1008.1 hPa | 1.27 mm | - | 0 W/m² | - |
| 1778057078 | 15° C | 80% | 1008.1 hPa | 1.27 mm | - | 0 W/m² | - |
| 1778056774 | 15.56° C | 76% | 1007.9 hPa | 0 mm | - | 0 W/m² | - |
| 1778056471 | 15.56° C | 79% | 1008 hPa | 0 mm | - | 0 W/m² | - |
| 1778056168 | 15.56° C | 77% | 1008 hPa | 0 mm | - | 0 W/m² | - |
| 1778055865 | 15.56° C | 78% | 1008 hPa | 0 mm | - | 0 W/m² | - |
| 1778055561 | 15.56° C | 74% | 1008.1 hPa | 0 mm | - | 0 W/m² | - |
| 1778055260 | 16.11° C | 71% | 1008.2 hPa | 0 mm | - | 0 W/m² | - |
| 1778054956 | 16.11° C | 70% | 1008 hPa | 0 mm | - | 0 W/m² | - |
| 1778054653 | 16.67° C | 69% | 1008.1 hPa | 0 mm | - | 0 W/m² | - |
* Rain latest hour (hover to see other rain measurements)
** Current wind speed in m/s (hover to see current wind gust speed)